This is the latest recevied weather packets stored in our database for station/object G7GQA-4. If no packets are shown the sender has not sent any weather packets the latest 10 day(s).
| Time | Temp. | Humidity | Pressure | Rain* | Wind** | Luminosity | Snow |
|---|---|---|---|---|---|---|---|
| 1778020226 | 9.44° C | 84% | - | 0 mm | - | 0 W/m² | - |
| 1778019627 | 9.44° C | 85% | - | 0 mm | - | 0 W/m² | - |
| 1778019026 | 8.89° C | 85% | - | 0 mm | - | 0 W/m² | - |
| 1778018427 | 8.89° C | 86% | - | 0 mm | - | 0 W/m² | - |
| 1778017826 | 8.89° C | 85% | - | 0 mm | - | 0 W/m² | - |
| 1778017226 | 9.44° C | 84% | - | 0 mm | - | 0 W/m² | - |
| 1778016626 | 9.44° C | 83% | - | 0 mm | - | 0 W/m² | - |
| 1778016026 | 10° C | 81% | - | 0 mm | - | 0 W/m² | - |
| 1778015426 | 10° C | 80% | - | 0 mm | - | 0 W/m² | - |
| 1778014826 | 10.56° C | 78% | - | 0 mm | - | 0 W/m² | - |
| 1778014226 | 10.56° C | 76% | - | 0 mm | - | 0 W/m² | - |
| 1778013626 | 10.56° C | 75% | - | 0 mm | - | 0 W/m² | - |
| 1778013026 | 11.11° C | 75% | - | 0 mm | - | 0 W/m² | - |
| 1778012426 | 11.11° C | 75% | - | 0 mm | - | 0 W/m² | - |
| 1778011826 | 11.11° C | 74% | - | 0 mm | - | 0 W/m² | - |
| 1778011226 | 11.11° C | 74% | - | 0 mm | - | 1 W/m² | - |
| 1778010626 | 11.11° C | 72% | - | 0 mm | - | 2 W/m² | - |
| 1778010026 | 11.67° C | 71% | - | 0 mm | - | 4 W/m² | - |
| 1778009426 | 11.67° C | 71% | - | 0 mm | - | 8 W/m² | - |
| 1778008826 | 12.22° C | 70% | - | 0 mm | - | 13 W/m² | - |
| 1778008225 | 12.22° C | 69% | - | 0 mm | - | 20 W/m² | - |
| 1778007625 | 12.22° C | 68% | - | 0 mm | - | 25 W/m² | - |
| 1778007025 | 12.78° C | 66% | - | 0 mm | - | 30 W/m² | - |
| 1778006425 | 12.78° C | 64% | - | 0 mm | - | 41 W/m² | - |
| 1778005825 | 12.78° C | 64% | - | 0 mm | - | 39 W/m² | - |
* Rain latest hour (hover to see other rain measurements)
** Current wind speed in m/s (hover to see current wind gust speed)